When you browse on this site, cookies collect data to enhance your experience and personalize the content and advertising you see.
Visit our Privacy Policy to learn more. By continuing to use the site, you agree to this use of cookies and data.
  • In Hungary
  • List of Countries
  • For 7 days
  • Water Temperature
  • Satellite Maps
  • Weather Map
  • News
  • Weather Widgets
  • user-avatar
    Login

    Hourly Weather Ar-Rakka

    Today, 10 December, Monday

    Time Temperature Precipitation Wind Pressure Humidity
    00:00 +14°C° 0.2 mm 3 mps 741 mmHg 70%
    01:00 +14°C° 0.1 mm 3 mps 741 mmHg 71%
    02:00 +13°C° 0.1 mm 3 mps 741 mmHg 73%
    03:00 +13°C° 0 mm 3 mps 741 mmHg 74%
    04:00 +13°C° 0 mm 3 mps 741 mmHg 75%
    05:00 +13°C° 0 mm 2 mps 741 mmHg 76%
    06:00 +13°C° 0 mm 2 mps 741 mmHg 77%
    07:00 +13°C° 0 mm 2 mps 741 mmHg 75%
    08:00 +13°C° 0 mm 3 mps 741 mmHg 74%
    09:00 +13°C° 0 mm 3 mps 741 mmHg 72%
    10:00 +14°C° 0 mm 3 mps 741 mmHg 67%
    11:00 +17°C° 0 mm 4 mps 741 mmHg 62%
    12:00 +18°C° 0 mm 4 mps 741 mmHg 57%
    13:00 +18°C° 0 mm 4 mps 740 mmHg 54%
    14:00 +19°C° 0 mm 4 mps 740 mmHg 51%
    15:00 +19°C° 0 mm 3 mps 739 mmHg 49%
    16:00 +18°C° 0 mm 3 mps 740 mmHg 52%
    17:00 +18°C° 0 mm 3 mps 740 mmHg 54%
    18:00 +17°C° 0 mm 3 mps 740 mmHg 57%
    19:00 +17°C° 0 mm 3 mps 740 mmHg 58%
    20:00 +17°C° 0 mm 3 mps 740 mmHg 59%
    21:00 +15°C° 0 mm 4 mps 740 mmHg 60%
    22:00 +15°C° 0 mm 4 mps 740 mmHg 60%
    23:00 +15°C° 0 mm 4 mps 740 mmHg 61%

    Tomorrow, 11 December, Tuesday

    Time Temperature Precipitation Wind Pressure Humidity
    00:00 +14°C° 0 mm 4 mps 740 mmHg 62%
    01:00 +14°C° 0 mm 4 mps 740 mmHg 62%
    02:00 +14°C° 0 mm 4 mps 739 mmHg 63%
    03:00 +13°C° 0 mm 4 mps 739 mmHg 63%
    04:00 +13°C° 0 mm 4 mps 739 mmHg 63%
    05:00 +13°C° 0 mm 5 mps 739 mmHg 63%
    06:00 +13°C° 0 mm 5 mps 739 mmHg 63%
    07:00 +13°C° 0 mm 5 mps 738 mmHg 62%
    08:00 +13°C° 0 mm 6 mps 738 mmHg 61%
    09:00 +14°C° 0 mm 6 mps 738 mmHg 60%
    10:00 +15°C° 0 mm 6 mps 738 mmHg 56%
    11:00 +16°C° 0 mm 7 mps 738 mmHg 52%
    12:00 +18°C° 0 mm 7 mps 738 mmHg 48%
    13:00 +18°C° 0.2 mm 7 mps 738 mmHg 49%
    14:00 +19°C° 0.2 mm 6 mps 738 mmHg 50%
    15:00 +19°C° 0.2 mm 6 mps 738 mmHg 51%
    16:00 +17°C° 0.5 mm 5 mps 738 mmHg 59%
    17:00 +16°C° 0.5 mm 5 mps 738 mmHg 66%
    18:00 +15°C° 0.5 mm 4 mps 738 mmHg 74%
    19:00 +15°C° 0.2 mm 4 mps 738 mmHg 75%
    20:00 +15°C° 0.2 mm 4 mps 739 mmHg 77%
    21:00 +16°C° 0.2 mm 3 mps 739 mmHg 78%
    22:00 +16°C° 0.3 mm 3 mps 739 mmHg 79%
    23:00 +16°C° 0.3 mm 3 mps 739 mmHg 79%

    Day after tomorrow, 12 December, Wednesday

    Time Temperature Precipitation Wind Pressure Humidity
    00:00 +16°C° 0.3 mm 3 mps 739 mmHg 79%
    01:00 +14°C° 0.2 mm 3 mps 739 mmHg 80%
    02:00 +14°C° 0.2 mm 3 mps 739 mmHg 81%
    03:00 +14°C° 0.2 mm 3 mps 739 mmHg 81%
    04:00 +14°C° 0.4 mm 3 mps 738 mmHg 81%
    05:00 +14°C° 0.4 mm 4 mps 738 mmHg 82%
    06:00 +13°C° 0.4 mm 5 mps 737 mmHg 82%
    07:00 +14°C° 0.3 mm 5 mps 737 mmHg 79%
    08:00 +14°C° 0.3 mm 6 mps 737 mmHg 76%
    09:00 +14°C° 0.3 mm 6 mps 737 mmHg 73%
    10:00 +15°C° 0.2 mm 7 mps 737 mmHg 70%
    11:00 +16°C° 0.2 mm 7 mps 737 mmHg 66%
    12:00 +17°C° 0.2 mm 8 mps 737 mmHg 62%
    13:00 +17°C° 0.6 mm 8 mps 737 mmHg 62%
    14:00 +17°C° 0.6 mm 8 mps 737 mmHg 63%
    15:00 +17°C° 0.6 mm 8 mps 736 mmHg 63%
    16:00 +16°C° 0.2 mm 7 mps 737 mmHg 65%
    17:00 +16°C° 0.2 mm 7 mps 737 mmHg 67%
    18:00 +16°C° 0.2 mm 7 mps 737 mmHg 69%
    19:00 +15°C° 0.1 mm 7 mps 737 mmHg 69%
    20:00 +15°C° 0.1 mm 7 mps 737 mmHg 69%
    21:00 +15°C° 0.1 mm 7 mps 738 mmHg 68%
    22:00 +14°C° 0 mm 7 mps 738 mmHg 67%
    23:00 +14°C° 0 mm 7 mps 738 mmHg 67%

    13 December, Thursday

    Time Temperature Precipitation Wind Pressure Humidity
    00:00 +14°C° 0 mm 7 mps 739 mmHg 66%
    01:00 +12°C° 0 mm 7 mps 739 mmHg 67%
    02:00 +13°C° 0 mm 6 mps 739 mmHg 68%
    03:00 +11°C° 0 mm 6 mps 739 mmHg 68%
    04:00 +11°C° 0 mm 6 mps 739 mmHg 69%
    05:00 +11°C° 0 mm 6 mps 740 mmHg 70%
    06:00 +10°C° 0 mm 5 mps 740 mmHg 71%
    07:00 +11°C° 0 mm 6 mps 740 mmHg 70%
    08:00 +11°C° 0 mm 6 mps 741 mmHg 68%
    09:00 +11°C° 0 mm 6 mps 742 mmHg 67%
    10:00 +13°C° 0 mm 6 mps 742 mmHg 61%
    11:00 +14°C° 0 mm 7 mps 742 mmHg 55%
    12:00 +15°C° 0 mm 7 mps 742 mmHg 49%
    13:00 +15°C° 0 mm 7 mps 742 mmHg 48%
    14:00 +15°C° 0 mm 7 mps 742 mmHg 48%
    15:00 +15°C° 0 mm 7 mps 742 mmHg 47%
    16:00 +15°C° 0 mm 5 mps 742 mmHg 50%
    17:00 +14°C° 0 mm 4 mps 742 mmHg 54%
    18:00 +13°C° 0 mm 3 mps 743 mmHg 57%
    19:00 +13°C° 0 mm 3 mps 743 mmHg 59%
    20:00 +13°C° 0 mm 2 mps 743 mmHg 61%
    21:00 +13°C° 0 mm 2 mps 744 mmHg 62%
    22:00 +13°C° 0 mm 2 mps 744 mmHg 63%
    23:00 +12°C° 0 mm 2 mps 744 mmHg 64%

    14 December, Friday

    Time Temperature Precipitation Wind Pressure Humidity
    00:00 +12°C° 0 mm 2 mps 744 mmHg 65%
    01:00 +12°C° 0 mm 2 mps 744 mmHg 66%
    02:00 +12°C° 0 mm 1 mps 744 mmHg 67%
    03:00 +11°C° 0 mm 1 mps 745 mmHg 68%
    04:00 +11°C° 0 mm 1 mps 745 mmHg 68%
    05:00 +11°C° 0 mm 1 mps 745 mmHg 69%
    06:00 +11°C° 0 mm 1 mps 745 mmHg 70%
    07:00 +11°C° 0 mm 1 mps 745 mmHg 68%
    08:00 +12°C° 0 mm 1 mps 746 mmHg 66%
    09:00 +13°C° 0 mm 1 mps 746 mmHg 64%
    10:00 +14°C° 0 mm 2 mps 746 mmHg 61%
    11:00 +15°C° 0 mm 2 mps 746 mmHg 59%
    12:00 +16°C° 0 mm 3 mps 745 mmHg 56%
    13:00 +16°C° 0 mm 3 mps 745 mmHg 55%
    14:00 +16°C° 0 mm 3 mps 745 mmHg 54%
    15:00 +17°C° 0 mm 3 mps 744 mmHg 53%
    16:00 +16°C° 0 mm 2 mps 744 mmHg 56%
    17:00 +16°C° 0 mm 2 mps 744 mmHg 59%
    18:00 +15°C° 0 mm 1 mps 744 mmHg 62%
    19:00 +15°C° 0 mm 1 mps 745 mmHg 63%
    20:00 +14°C° 0 mm 1 mps 745 mmHg 64%
    21:00 +14°C° 0 mm 1 mps 745 mmHg 65%
    22:00 +14°C° 0 mm 2 mps 745 mmHg 66%
    23:00 +14°C° 0 mm 2 mps 745 mmHg 67%

    15 December, Saturday

    Time Temperature Precipitation Wind Pressure Humidity
    00:00 +13°C° 0 mm 2 mps 745 mmHg 67%
    01:00 +13°C° 0 mm 2 mps 745 mmHg 68%
    02:00 +13°C° 0 mm 2 mps 745 mmHg 69%
    03:00 +13°C° 0 mm 1 mps 745 mmHg 70%
    04:00 +12°C° 0 mm 1 mps 745 mmHg 70%
    05:00 +12°C° 0 mm 1 mps 745 mmHg 71%
    06:00 +12°C° 0 mm 1 mps 745 mmHg 72%
    07:00 +13°C° 0 mm 1 mps 745 mmHg 69%
    08:00 +13°C° 0 mm 1 mps 746 mmHg 67%
    09:00 +14°C° 0 mm 1 mps 746 mmHg 64%
    10:00 +15°C° 0 mm 1 mps 746 mmHg 60%
    11:00 +16°C° 0 mm 1 mps 746 mmHg 56%
    12:00 +18°C° 0 mm 1 mps 746 mmHg 52%
    13:00 +17°C° 0 mm 2 mps 746 mmHg 50%
    14:00 +17°C° 0 mm 2 mps 745 mmHg 49%
    15:00 +18°C° 0 mm 2 mps 745 mmHg 47%
    16:00 +17°C° 0 mm 2 mps 745 mmHg 50%
    17:00 +17°C° 0 mm 3 mps 745 mmHg 54%
    18:00 +16°C° 0 mm 3 mps 745 mmHg 57%
    19:00 +14°C° 0 mm 3 mps 745 mmHg 59%
    20:00 +14°C° 0 mm 3 mps 745 mmHg 60%
    21:00 +14°C° 0 mm 3 mps 746 mmHg 62%
    22:00 +13°C° 0 mm 3 mps 746 mmHg 64%
    23:00 +13°C° 0 mm 3 mps 746 mmHg 65%
    Show more